User: anonymous   Login
Location: Castiglione Fibocchi
(43.5333°N, 11.7667°E)
Time: 16:17:27
(UTC+00:00)
Language:

Cosmos 1898 Rocket - Orbit

View from above orbital plane
View from above orbital plane
View from above satellite
View from above satellite

Ground track
Ground track

The orbit data is extracted from the following two-line orbital elements,

1 18586U 87098B   20292.90839785 +.00000019 +00000-0 +15229-4 0  9997
2 18586 074.0076 209.0953 0021473 334.3300 025.6785 14.36911545722244
Epoch (UTC): 18 October 2020 21:48:05
Eccentricity: 0.0021473
inclination: 74.0076°
perigee height: 753 km
apogee height: 784 km
right ascension of ascending node: 209.0953°
argument of perigee: 334.3300°
revolutions per day: 14.36911545
mean anomaly at epoch: 25.6785°
orbit number at epoch: 72224

The dashed part of the orbit path shows where the satellite is in the earth's shadow,  

DLR